Hlavní strana
METAR-TAF:

METAR-TAF

Letiště :

Newberry, Jižní Karolína, Spojené státy americké

zeměpisná šířka: 34-18-34N, zeměpisná délka: 081-38-26W, výška: 174 m

Aktuální stav počasí

Zpráva byla vytvořena před 15 minutami, v 08:35 UTC
Bezvětří
Teplota 20°C
Vlhkost vzduchu 100%
Tlak 1017 hPa
Viditelnost: 16.1 km
Polojasno ve výšce 2000 ft
Zataženo ve výšce 2800 ft

METAR: KEOE 280835Z AUTO 00000KT 10SM SCT020 OVC028 20/20 A3003 RMK AO2

Čas: 04:50 (08:50 UTC)


TAF: chybějící

Stav a předpovědi počasí z více než 4 000 letišť (zprávy METAR a TAF).

Červené a žluté tečky na mapě představují dostupné meteorologické stanice.

Když kurzor umístíte na tečku, zobrazí se název stanice.

Pak kliknutím zobrazíte stav a předpověď počasí.

Chcete-li změnit mapu, kliknutím na zelené tlačítko se znaménkem +mapu přiblížíte, kliknutím na zelené tlačítko se znaménkem – mapu oddálíte a kliknutím na zelené šipky přejdete na sousední mapy.


METAR-TAF: